• în România
  • Lista ţărilor
  • Pe 7 zile
  • Temperatura apei
  • Hartă satelitară
  • Meteo pe hartă
  • Widget-uri
  • user-avatar
    Intrare

    Meteo pe oră la Babadag

    Astăzi, 19 August, Duminică

    Timp Temperatura Precipitaţii Vânt Presiune Umiditate
    00:00 +26°C° 0 mm 2 m/s 757 mmHg 47%
    01:00 +25°C° 0 mm 3 m/s 757 mmHg 48%
    02:00 +25°C° 0 mm 3 m/s 757 mmHg 49%
    03:00 +24°C° 0 mm 3 m/s 757 mmHg 51%
    04:00 +24°C° 0 mm 3 m/s 757 mmHg 54%
    05:00 +22°C° 0 mm 3 m/s 757 mmHg 56%
    06:00 +25°C° 0 mm 3 m/s 757 mmHg 53%
    07:00 +27°C° 0 mm 3 m/s 757 mmHg 50%
    08:00 +29°C° 0 mm 3 m/s 757 mmHg 46%
    09:00 +31°C° 0 mm 3 m/s 757 mmHg 42%
    10:00 +33°C° 0 mm 4 m/s 757 mmHg 37%
    11:00 +35°C° 0 mm 4 m/s 757 mmHg 33%
    12:00 +35°C° 0 mm 4 m/s 757 mmHg 32%
    13:00 +35°C° 0 mm 4 m/s 757 mmHg 32%
    14:00 +35°C° 0 mm 4 m/s 757 mmHg 32%
    15:00 +34°C° 0 mm 4 m/s 757 mmHg 35%
    16:00 +33°C° 0 mm 4 m/s 757 mmHg 38%
    17:00 +32°C° 0 mm 5 m/s 756 mmHg 41%
    18:00 +29°C° 0 mm 4 m/s 756 mmHg 49%
    19:00 +27°C° 0 mm 3 m/s 757 mmHg 56%
    20:00 +25°C° 0 mm 3 m/s 757 mmHg 63%
    21:00 +25°C° 0 mm 2 m/s 757 mmHg 65%
    22:00 +24°C° 0 mm 2 m/s 757 mmHg 67%
    23:00 +23°C° 0 mm 1 m/s 757 mmHg 69%

    Mâine, 20 August, Luni

    Timp Temperatura Precipitaţii Vânt Presiune Umiditate
    00:00 +23°C° 0 mm 2 m/s 757 mmHg 68%
    01:00 +23°C° 0 mm 2 m/s 757 mmHg 68%
    02:00 +21°C° 0 mm 2 m/s 757 mmHg 67%
    03:00 +21°C° 0 mm 2 m/s 757 mmHg 66%
    04:00 +21°C° 0 mm 2 m/s 757 mmHg 65%
    05:00 +21°C° 0 mm 2 m/s 757 mmHg 64%
    06:00 +24°C° 0 mm 3 m/s 757 mmHg 58%
    07:00 +25°C° 0 mm 3 m/s 757 mmHg 51%
    08:00 +27°C° 0 mm 3 m/s 757 mmHg 44%
    09:00 +29°C° 0 mm 3 m/s 757 mmHg 39%
    10:00 +30°C° 0 mm 4 m/s 757 mmHg 34%
    11:00 +33°C° 0 mm 4 m/s 757 mmHg 29%
    12:00 +33°C° 0 mm 4 m/s 757 mmHg 28%
    13:00 +34°C° 0 mm 5 m/s 757 mmHg 28%
    14:00 +34°C° 0 mm 5 m/s 756 mmHg 27%
    15:00 +33°C° 0 mm 5 m/s 756 mmHg 29%
    16:00 +32°C° 0 mm 5 m/s 756 mmHg 30%
    17:00 +30°C° 0 mm 5 m/s 756 mmHg 32%
    18:00 +28°C° 0 mm 4 m/s 756 mmHg 38%
    19:00 +26°C° 0 mm 4 m/s 756 mmHg 44%
    20:00 +24°C° 0 mm 3 m/s 756 mmHg 50%
    21:00 +22°C° 0 mm 3 m/s 756 mmHg 52%
    22:00 +23°C° 0 mm 2 m/s 756 mmHg 54%
    23:00 +22°C° 0 mm 1 m/s 756 mmHg 56%

    Poimâine, 21 August, Marţi

    Timp Temperatura Precipitaţii Vânt Presiune Umiditate
    00:00 +22°C° 0 mm 1 m/s 756 mmHg 57%
    01:00 +20°C° 0 mm 2 m/s 756 mmHg 57%
    02:00 +20°C° 0 mm 2 m/s 756 mmHg 58%
    03:00 +19°C° 0 mm 2 m/s 756 mmHg 57%
    04:00 +19°C° 0 mm 2 m/s 756 mmHg 56%
    05:00 +19°C° 0 mm 2 m/s 756 mmHg 55%
    06:00 +21°C° 0 mm 2 m/s 756 mmHg 49%
    07:00 +24°C° 0 mm 2 m/s 757 mmHg 42%
    08:00 +26°C° 0 mm 2 m/s 757 mmHg 36%
    09:00 +28°C° 0 mm 2 m/s 757 mmHg 32%
    10:00 +30°C° 0 mm 2 m/s 757 mmHg 28%
    11:00 +33°C° 0 mm 3 m/s 757 mmHg 24%
    12:00 +33°C° 0 mm 3 m/s 757 mmHg 23%
    13:00 +34°C° 0 mm 3 m/s 756 mmHg 23%
    14:00 +35°C° 0 mm 3 m/s 756 mmHg 22%
    15:00 +34°C° 0 mm 3 m/s 756 mmHg 23%
    16:00 +34°C° 0 mm 4 m/s 756 mmHg 25%
    17:00 +33°C° 0 mm 4 m/s 756 mmHg 26%
    18:00 +29°C° 0 mm 3 m/s 756 mmHg 33%
    19:00 +27°C° 0 mm 3 m/s 756 mmHg 40%
    20:00 +24°C° 0 mm 2 m/s 756 mmHg 47%
    21:00 +24°C° 0 mm 2 m/s 757 mmHg 48%
    22:00 +23°C° 0 mm 1 m/s 757 mmHg 49%
    23:00 +23°C° 0 mm 1 m/s 757 mmHg 50%

    22 August, Miercuri

    Timp Temperatura Precipitaţii Vânt Presiune Umiditate
    00:00 +21°C° 0 mm 2 m/s 757 mmHg 49%
    01:00 +21°C° 0 mm 2 m/s 757 mmHg 48%
    02:00 +21°C° 0 mm 3 m/s 757 mmHg 47%
    03:00 +21°C° 0 mm 3 m/s 757 mmHg 53%
    04:00 +21°C° 0 mm 3 m/s 757 mmHg 60%
    05:00 +21°C° 0 mm 4 m/s 758 mmHg 66%
    06:00 +22°C° 0 mm 4 m/s 758 mmHg 64%
    07:00 +25°C° 0 mm 5 m/s 758 mmHg 62%
    08:00 +27°C° 0 mm 6 m/s 758 mmHg 61%
    09:00 +28°C° 0 mm 6 m/s 758 mmHg 55%
    10:00 +30°C° 0 mm 6 m/s 759 mmHg 49%
    11:00 +33°C° 0 mm 5 m/s 759 mmHg 44%
    12:00 +33°C° 0 mm 5 m/s 758 mmHg 43%
    13:00 +33°C° 0 mm 5 m/s 758 mmHg 42%
    14:00 +33°C° 0 mm 5 m/s 758 mmHg 41%
    15:00 +33°C° 0,1 mm 5 m/s 758 mmHg 43%
    16:00 +32°C° 0,1 mm 4 m/s 758 mmHg 44%
    17:00 +30°C° 0,1 mm 4 m/s 758 mmHg 46%
    18:00 +29°C° 0 mm 4 m/s 758 mmHg 51%
    19:00 +27°C° 0 mm 3 m/s 758 mmHg 56%
    20:00 +26°C° 0 mm 3 m/s 759 mmHg 61%
    21:00 +25°C° 0 mm 3 m/s 759 mmHg 61%
    22:00 +24°C° 0 mm 3 m/s 759 mmHg 62%
    23:00 +22°C° 0 mm 3 m/s 759 mmHg 62%

    23 August, Joi

    Timp Temperatura Precipitaţii Vânt Presiune Umiditate
    00:00 +22°C° 0 mm 4 m/s 759 mmHg 61%
    01:00 +21°C° 0 mm 4 m/s 759 mmHg 59%
    02:00 +21°C° 0 mm 4 m/s 759 mmHg 57%
    03:00 +21°C° 0 mm 4 m/s 759 mmHg 57%
    04:00 +20°C° 0 mm 4 m/s 759 mmHg 58%
    05:00 +20°C° 0 mm 4 m/s 759 mmHg 59%
    06:00 +21°C° 0 mm 5 m/s 759 mmHg 55%
    07:00 +23°C° 0 mm 5 m/s 759 mmHg 52%
    08:00 +25°C° 0 mm 5 m/s 759 mmHg 48%
    09:00 +27°C° 0 mm 5 m/s 759 mmHg 43%
    10:00 +28°C° 0 mm 5 m/s 759 mmHg 38%
    11:00 +30°C° 0 mm 5 m/s 759 mmHg 33%
    12:00 +30°C° 0 mm 5 m/s 758 mmHg 32%
    13:00 +30°C° 0 mm 5 m/s 758 mmHg 31%
    14:00 +32°C° 0 mm 5 m/s 758 mmHg 30%
    15:00 +30°C° 0 mm 5 m/s 758 mmHg 31%
    16:00 +30°C° 0 mm 5 m/s 757 mmHg 33%
    17:00 +29°C° 0 mm 5 m/s 757 mmHg 34%
    18:00 +27°C° 0 mm 5 m/s 757 mmHg 41%
    19:00 +25°C° 0 mm 4 m/s 757 mmHg 48%
    20:00 +21°C° 0 mm 3 m/s 757 mmHg 54%
    21:00 +21°C° 0 mm 3 m/s 757 mmHg 57%
    22:00 +20°C° 0 mm 3 m/s 757 mmHg 59%
    23:00 +20°C° 0 mm 3 m/s 757 mmHg 62%

    24 August, Vineri

    Timp Temperatura Precipitaţii Vânt Presiune Umiditate
    00:00 +19°C° 0 mm 3 m/s 757 mmHg 62%
    01:00 +19°C° 0 mm 3 m/s 757 mmHg 63%
    02:00 +19°C° 0 mm 3 m/s 756 mmHg 64%
    03:00 +19°C° 0 mm 3 m/s 756 mmHg 63%
    04:00 +19°C° 0 mm 3 m/s 756 mmHg 63%
    05:00 +19°C° 0 mm 4 m/s 756 mmHg 62%
    06:00 +22°C° 0 mm 4 m/s 756 mmHg 57%
    07:00 +25°C° 0 mm 4 m/s 756 mmHg 52%
    08:00 +27°C° 0 mm 5 m/s 756 mmHg 47%
    09:00 +28°C° 0 mm 5 m/s 756 mmHg 42%
    10:00 +30°C° 0 mm 5 m/s 756 mmHg 37%
    11:00 +32°C° 0 mm 5 m/s 756 mmHg 33%
    12:00 +32°C° 0 mm 5 m/s 755 mmHg 32%
    13:00 +33°C° 0 mm 5 m/s 755 mmHg 30%
    14:00 +33°C° 0 mm 5 m/s 754 mmHg 29%
    15:00 +32°C° 0 mm 5 m/s 754 mmHg 32%
    16:00 +32°C° 0 mm 5 m/s 754 mmHg 34%
    17:00 +30°C° 0 mm 5 m/s 753 mmHg 36%
    18:00 +28°C° 0 mm 4 m/s 754 mmHg 42%
    19:00 +26°C° 0 mm 3 m/s 754 mmHg 49%
    20:00 +23°C° 0 mm 2 m/s 754 mmHg 56%
    21:00 +23°C° 0 mm 2 m/s 754 mmHg 56%
    22:00 +21°C° 0 mm 2 m/s 753 mmHg 57%
    23:00 +21°C° 0 mm 2 m/s 753 mmHg 58%
    Arată mai mult